CPA110 YSSY-VHHH

Flight info

Callsign CPA110
Flight time N/A
Altitude 36000
Route TESAT H530 LASUD Q238 SGE DCT 2623S14749E/N0494F380 2349S14641E 2035S14500E 17S143E 1527S14207E 1120S13935E DCT OPABA B473 OLENG/N0485F400 B473 DAO W8 MCT W11 MIA W16 AVMUP A461 NOMAN V533 BETTY
Aircraft A359/H-SDE2E3GHIJ3J4J5LM1ORWXY/LB1D1

Departure

Time 2026-05-04 21:31
Airport Sydney Kingsford Smith International Airport (YSSY)

Arrival

Time N/A
Airport Hong Kong International Airport (VHHH)
Time Latitude Longitude Altitude Speed Heading
2026-05-04 21:00 -33.93951 151.16893 36 ft 0 kts 74°
2026-05-04 21:12 -33.93954 151.16878 34 ft 2 kts 83°
2026-05-04 21:12 -33.93956 151.16860 35 ft 2 kts 92°
2026-05-04 21:13 -33.93954 151.16840 34 ft 2 kts 101°
2026-05-04 21:13 -33.93950 151.16821 33 ft 2 kts 115°
2026-05-04 21:13 -33.93941 151.16804 35 ft 2 kts 128°
2026-05-04 21:13 -33.93931 151.16790 35 ft 2 kts 139°
2026-05-04 21:14 -33.93918 151.16778 34 ft 2 kts 148°
2026-05-04 21:14 -33.93903 151.16769 36 ft 2 kts 155°
2026-05-04 21:14 -33.93889 151.16762 34 ft 2 kts 161°
2026-05-04 21:14 -33.93883 151.16759 35 ft 0 kts 165°
2026-05-04 21:19 -33.93935 151.16777 33 ft 17 kts 165°
2026-05-04 21:19 -33.94020 151.16805 36 ft 14 kts 165°
2026-05-04 21:19 -33.94199 151.16858 34 ft 34 kts 167°
2026-05-04 21:20 -33.94369 151.16902 36 ft 27 kts 165°
2026-05-04 21:20 -33.94401 151.16937 36 ft 9 kts 110°
2026-05-04 21:20 -33.94387 151.17073 36 ft 23 kts 72°
2026-05-04 21:20 -33.94340 151.17266 36 ft 10 kts 90°
2026-05-04 21:21 -33.94397 151.17334 37 ft 20 kts 160°
2026-05-04 21:21 -33.94588 151.17385 37 ft 36 kts 168°
2026-05-04 21:21 -33.94877 151.17459 36 ft 47 kts 167°
2026-05-04 21:21 -33.95203 151.17543 35 ft 49 kts 168°
2026-05-04 21:22 -33.95503 151.17621 36 ft 28 kts 168°
2026-05-04 21:22 -33.95689 151.17670 36 ft 29 kts 168°
2026-05-04 21:22 -33.95887 151.17721 36 ft 29 kts 168°
2026-05-04 21:22 -33.96087 151.17773 36 ft 29 kts 168°
2026-05-04 21:23 -33.96286 151.17825 36 ft 27 kts 168°
2026-05-04 21:23 -33.96312 151.17831 36 ft 0 kts 167°
2026-05-04 21:23 -33.96376 151.17849 36 ft 14 kts 166°
2026-05-04 21:23 -33.96407 151.17873 36 ft 12 kts 128°
2026-05-04 21:24 -33.96428 151.17991 36 ft 18 kts 82°
2026-05-04 21:24 -33.96373 151.18061 36 ft 0 kts 357°
2026-05-04 21:29 -33.96372 151.18060 36 ft 1 kts 350°
2026-05-04 21:29 -33.96319 151.18038 36 ft 17 kts 343°
2026-05-04 21:29 -33.96288 151.18029 34 ft 0 kts 347°
2026-05-04 21:30 -33.96188 151.18002 34 ft 43 kts 347°
2026-05-04 21:30 -33.95697 151.17874 35 ft 100 kts 348°
2026-05-04 21:31 -33.93772 151.17309 475 ft 150 kts 339°
2026-05-04 21:31 -33.92798 151.16818 942 ft 164 kts 331°
2026-05-04 21:31 -33.91698 151.16199 1255 ft 184 kts 329°
2026-05-04 21:32 -33.90499 151.15469 1669 ft 201 kts 326°
2026-05-04 21:32 -33.89246 151.14541 1950 ft 224 kts 317°
2026-05-04 21:32 -33.88048 151.13251 2298 ft 238 kts 308°
2026-05-04 21:32 -33.86981 151.11666 2735 ft 249 kts 302°
2026-05-04 21:33 -33.85916 151.09982 3313 ft 257 kts 304°
2026-05-04 21:33 -33.84750 151.08345 4064 ft 257 kts 311°
2026-05-04 21:33 -33.83479 151.06844 4885 ft 255 kts 314°
2026-05-04 21:33 -33.82168 151.05421 5660 ft 253 kts 317°
2026-05-04 21:34 -33.80808 151.04082 6454 ft 252 kts 320°
2026-05-04 21:34 -33.79383 151.02798 6969 ft 264 kts 321°
2026-05-04 21:34 -33.77968 151.01377 7557 ft 266 kts 313°
2026-05-04 21:34 -33.76727 150.99769 8469 ft 259 kts 309°
2026-05-04 21:35 -33.75564 150.98136 9364 ft 258 kts 308°
2026-05-04 21:35 -33.74427 150.96458 9937 ft 266 kts 307°
2026-05-04 21:35 -33.73278 150.94681 10499 ft 273 kts 306°
2026-05-04 21:35 -33.72108 150.92840 10921 ft 286 kts 307°
2026-05-04 21:36 -33.71230 150.91616 11105 ft 297 kts 310°
2026-05-04 21:36 -33.69733 150.89797 11380 ft 314 kts 314°
2026-05-04 21:36 -33.68133 150.87926 11679 ft 328 kts 313°
2026-05-04 21:36 -33.66477 150.85953 11986 ft 342 kts 313°
2026-05-04 21:37 -33.64787 150.83903 12429 ft 349 kts 313°
2026-05-04 21:37 -33.63079 150.81811 12996 ft 352 kts 312°
2026-05-04 21:37 -33.59220 150.77054 14264 ft 359 kts 312°
2026-05-04 21:37 -33.51941 150.68608 16395 ft 370 kts 314°
2026-05-04 21:38 -33.44429 150.59968 18754 ft 378 kts 314°
2026-05-04 21:38 -33.36762 150.51110 20780 ft 388 kts 314°
2026-05-04 21:38 -33.28883 150.42042 22696 ft 400 kts 314°
2026-05-04 21:38 -33.20762 150.32723 24667 ft 409 kts 314°
2026-05-04 21:39 -33.12472 150.23232 26457 ft 415 kts 314°
2026-05-04 21:39 -33.04047 150.13614 28071 ft 424 kts 314°
2026-05-04 21:39 -32.95468 150.03847 29537 ft 431 kts 314°
2026-05-04 21:39 -32.86721 149.93931 30915 ft 433 kts 313°
2026-05-04 21:40 -32.78097 149.84165 32585 ft 424 kts 313°
2026-05-04 21:40 -32.69586 149.74570 34025 ft 418 kts 313°
2026-05-04 21:40 -32.61200 149.65117 35049 ft 415 kts 313°
2026-05-04 21:40 -32.53260 149.55279 35929 ft 410 kts 307°
2026-05-04 21:41 -32.45987 149.44748 36198 ft 416 kts 306°
2026-05-04 21:41 -32.31332 149.23592 36203 ft 416 kts 307°
2026-05-04 21:42 -32.16613 149.02496 36203 ft 416 kts 307°
2026-05-04 21:42 -31.97987 148.86997 36209 ft 447 kts 346°
2026-05-04 21:43 -31.72889 148.85215 36206 ft 452 kts 347°
2026-05-04 21:43 -31.47860 148.83417 36199 ft 449 kts 347°
2026-05-04 21:44 -31.23011 148.81645 36184 ft 446 kts 347°
2026-05-04 21:44 -30.98388 148.79911 36176 ft 441 kts 346°
2026-05-04 21:45 -30.73979 148.78174 36169 ft 437 kts 345°
2026-05-04 21:45 -30.60332 148.77219 36168 ft 435 kts 345°
2026-05-04 21:46 -30.54291 148.76793 36165 ft 434 kts 345°
2026-05-04 21:46 -30.48261 148.76367 36165 ft 434 kts 345°
2026-05-04 21:47 -30.42232 148.75944 36165 ft 434 kts 345°
2026-05-04 21:47 -30.36201 148.75523 36169 ft 433 kts 345°
2026-05-04 21:48 -30.31203 148.75176 36165 ft 433 kts 345°